Indianapolis, IN

3:00 AM EST on November 22, 2019 (GMT -0500)
Indianapolis International

Weather History for KIND - May, 2019

Change the Weather History Date:

Friday, May 24, 2019

  Actual Average Record
Temperature  
Mean Temperature 76 °F 65 °F  
Max Temperature 87 °F 75 °F 90 °F (1965)
Min Temperature 64 °F 55 °F 37 °F (1925)
Degree Days  
Heating Degree Days 0 3  
Month to date heating degree days 125 124  
Since 1 July heating degree days 5376 5346  
Cooling Degree Days 11 3  
Month to date cooling degree days 47 43  
Year to date cooling degree days 48 58  
Growing Degree Days 26 (Base 50)    
Moisture  
Dew Point 65 °F    
Average Humidity 69    
Maximum Humidity 87    
Minimum Humidity 51    
Precipitation  
Precipitation 0.28 in 0.17 in 1.55 in (1981)
Month to date precipitation 3.81 3.95  
Year to date precipitation 21.29 16.30  
Snow  
Snow 0.00 in 0.00 in 0.00 in ()
Month to date snowfall 0.0 0.0  
Since 1 July snowfall 19.4 25.9  
Snow Depth 0.00 in    
Sea Level Pressure  
Sea Level Pressure 30.06 in    
Wind  
Wind Speed 8 mph (South)    
Max Wind Speed 20 mph    
Max Gust Speed 25 mph    
Visibility 10 miles    
Events Rain , Thunderstorm    
T = Trace of Precipitation, MM = Missing Value Source: NWS Daily Summary

Daily Weather History Graph

Daily Weather History Graph

Search for Another Location

Airport or City:

Astronomy

May. 24, 2019 Rise Set
Actual Time 6:23 AM EDT 9:00 PM EDT
Civil Twilight 5:52 AM EDT 9:32 PM EDT
Nautical Twilight 5:13 AM EDT 10:11 PM EDT
Astronomical Twilight 4:29 AM EDT 10:55 PM EDT
Moon 1:25 AM EDT (5/24) 11:23 AM EDT (5/24)
Length of Visible Light 15h 39m
Length of Day
14h 37m
Waning Gibbous, 69% of the Moon is Illuminated
May 24
Waning Gibbous
May 26
Last Quarter
Jun 3
New
Jun 10
First Quarter
Jun 17
Full

Hourly Weather History & Observations

Time (EDT) Temp. Heat Index Dew Point Humidity Pressure Visibility Wind Dir Wind Speed Gust Speed Precip Events Conditions
12:54 AM 69.1 °F - 63.0 °F 81% 30.07 in 10.0 mi North 3.5 mph - N/A   Partly Cloudy
1:54 AM 69.1 °F - 63.0 °F 81% 30.07 in 10.0 mi NNE 3.5 mph - N/A   Partly Cloudy
2:54 AM 66.0 °F - 62.1 °F 87% 30.07 in 10.0 mi Calm Calm - N/A   Partly Cloudy
3:54 AM 64.9 °F - 61.0 °F 87% 30.07 in 10.0 mi Calm Calm - N/A   Clear
4:54 AM 64.9 °F - 61.0 °F 87% 30.08 in 10.0 mi Calm Calm - N/A   Partly Cloudy
5:54 AM 64.9 °F - 61.0 °F 87% 30.08 in 10.0 mi NE 3.5 mph - N/A   Scattered Clouds
6:54 AM 66.0 °F - 63.0 °F 90% 30.08 in 8.0 mi East 3.5 mph - N/A   Overcast
7:54 AM 68.0 °F - 63.0 °F 84% 30.10 in 10.0 mi East 4.6 mph - N/A   Overcast
8:09 AM 68.0 °F - 63.0 °F 84% 30.12 in 10.0 mi East 3.5 mph - 0.00 in Rain , Thunderstorm Light Thunderstorms and Rain
8:26 AM 66.9 °F - 63.0 °F 87% 30.13 in 1.8 mi Calm Calm - 0.04 in Rain , Thunderstorm Thunderstorms and Rain
8:52 AM 66.2 °F - 62.6 °F 88% 30.12 in 10.0 mi ESE 4.6 mph - 0.28 in Rain , Thunderstorm Light Thunderstorms and Rain
8:54 AM 66.0 °F - 62.1 °F 87% 30.11 in 10.0 mi ESE 4.6 mph - 0.28 in Rain , Thunderstorm Light Thunderstorms and Rain
9:18 AM 66.9 °F - 63.0 °F 87% 30.12 in 10.0 mi East 4.6 mph - 0.00 in   Overcast
9:54 AM 70.0 °F - 64.9 °F 84% 30.10 in 10.0 mi ESE 6.9 mph - 0.00 in   Mostly Cloudy
10:54 AM 73.9 °F - 68.0 °F 82% 30.09 in 10.0 mi South 9.2 mph - N/A   Mostly Cloudy
11:54 AM 79.0 °F - 71.1 °F 77% 30.08 in 10.0 mi SSW 10.4 mph - N/A   Mostly Cloudy
12:54 PM 82.0 °F 86.3 °F 71.1 °F 69% 30.07 in 10.0 mi SW 11.5 mph 21.9 mph N/A   Mostly Cloudy
1:54 PM 82.9 °F 86.5 °F 69.1 °F 63% 30.07 in 10.0 mi WSW 12.7 mph - N/A   Mostly Cloudy
2:54 PM 84.9 °F 88.2 °F 68.0 °F 57% 30.06 in 10.0 mi WSW 16.1 mph - N/A   Mostly Cloudy
3:54 PM 82.9 °F 85.4 °F 66.9 °F 58% 30.07 in 10.0 mi WSW 12.7 mph 20.7 mph N/A   Mostly Cloudy
4:54 PM 86.0 °F 88.8 °F 66.9 °F 53% 30.04 in 10.0 mi SW 13.8 mph 21.9 mph N/A   Mostly Cloudy
5:54 PM 84.0 °F 86.5 °F 66.9 °F 56% 30.03 in 10.0 mi SW 13.8 mph - N/A   Mostly Cloudy
6:54 PM 82.9 °F 85.4 °F 66.9 °F 58% 30.00 in 10.0 mi SSW 15.0 mph - N/A   Scattered Clouds
7:54 PM 82.0 °F 84.1 °F 66.0 °F 58% 29.97 in 10.0 mi South 15.0 mph 20.7 mph N/A   Partly Cloudy
8:54 PM 80.1 °F 81.9 °F 64.9 °F 60% 29.96 in 10.0 mi South 16.1 mph - N/A   Partly Cloudy
9:54 PM 77.0 °F - 64.0 °F 64% 29.96 in 10.0 mi SSW 8.1 mph - N/A   Partly Cloudy
10:54 PM 75.0 °F - 64.0 °F 69% 29.99 in 10.0 mi SSW 5.8 mph - N/A   Partly Cloudy
11:54 PM 72.0 °F - 64.0 °F 76% 30.00 in 10.0 mi SSW 6.9 mph - N/A   Clear